Overview Statistics Trail Chart Weather Telemetry Raw packets
 

This is the latest recevied weather packets stored in our database for station/object EB1BWO-11. If no packets are shown the sender has not sent any weather packets the latest 10 day(s).

<< 9 10 11 12 13 14 15 >>
Time Temp. Humidity Pressure Rain* Wind** Luminosity Snow
1788382377 21.67° C 63% 1027.1 hPa - - - -
1788381477 22.22° C 63% 1027 hPa - - - -
1788380577 22.22° C 62% 1026.9 hPa - - - -
1788379677 22.78° C 62% 1026.9 hPa - - - -
1788378777 22.78° C 61% 1026.9 hPa - - - -
1788377877 22.78° C 61% 1026.6 hPa - - - -
1788376977 23.33° C 61% 1026.6 hPa - - - -
1788376076 23.33° C 60% 1026.5 hPa - - - -
1788375176 23.89° C 60% 1026.3 hPa - - - -
1788374276 24.44° C 59% 1026.2 hPa - - - -
1788373376 24.44° C 59% 1026 hPa - - - -
1788372476 25° C 58% 1026.2 hPa - - - -
1788371576 25° C 58% 1026.2 hPa - - - -
1788370676 25° C 58% 1026.2 hPa - - - -
1788369776 25.56° C 58% 1026 hPa - - - -
1788368875 25.56° C 57% 1025.8 hPa - - - -
1788367975 25.56° C 58% 1025.9 hPa - - - -
1788367075 26.11° C 57% 1025.8 hPa - - - -
1788366175 26.67° C 56% 1025.7 hPa - - - -
1788365275 27.22° C 54% 1025.6 hPa - - - -
1788364375 27.78° C 54% 1025.7 hPa - - - -
1788363475 28.33° C 54% 1025.7 hPa - - - -
1788362574 28.89° C 53% 1025.8 hPa - - - -
1788361674 29.44° C 52% 1025.7 hPa - - - -
1788360774 32.22° C 48% 1025.6 hPa - - - -

* Rain since midnight (hover to see other rain measurements)
** Current wind speed in m/s (hover to see current wind gust speed)